Location: ???????????
(55.5758°N, 38.4970°E)
Time: 17:44:55
(UTC+00:00)

CZ-2C R/B - Pass Details

Date: 15 November 2025
Orbit: 664 x 773 km, 98.4° (Epoch: 14 December)

Event Time Altitude Azimuth Distance (km) Brightness Sun altitude
Rises 01:33:53 0° 17° (NNE) 3,208 6.0 -28.8°
Reaches altitude 10° 01:36:12 10° 20° (NNE) 2,293 5.3 -28.5°
Maximum altitude 01:41:15 67° 103° (ESE) 833 2.7 -27.7°
Enters shadow 01:42:35 47° 165° (SSE) 1,009 3.0 -27.6°
